This demonstration page uses our WeatherBlox Daily Observations layout. Learn more.

Left ArrowRight Arrow

39.01783, -85.05884

Hourly Observations for November 11, 2021

Temp ( °F °C ) Dew Point ( °F °C ) Humidity (%) Winds ( mph kmh ) Pressure ( in mb ) Visibility ( mi km ) Precip ( " mm )
12:52 am 00:52 Mostly Cloudy 53 11.7 44 6.7 72 72 SSE 6 9 29.95 1014 10 16 N/A
1:52 am 01:52 Mostly Cloudy 52 11.1 42 5.6 69 69 S 8 13 29.93 1014 10 16 N/A
2:52 am 02:52 Cloudy 50 10 41 5 71 71 SSE 9 15 29.93 1014 10 16 N/A
3:52 am 03:52 Cloudy 51 10.6 42 5.6 71 71 S 8 13 29.93 1014 10 16 N/A
4:52 am 04:52 Cloudy 53 11.7 41 5 64 64 S 8 13 29.91 1013 10 16 N/A
5:52 am 05:52 Cloudy 49 9.4 40 4.4 71 71 SSE 8 13 29.90 1013 10 16 N/A
6:52 am 06:52 Cloudy 50 10 41 5 71 71 SSE 9 15 29.88 1012 10 16 N/A
7:52 am 07:52 Mostly Cloudy 51 10.6 42 5.6 71 71 S 10 17 29.87 1012 9 14 N/A
8:52 am 08:52 Mostly Cloudy 55 12.8 43 6.1 64 64 S 15 24 29.86 1011 10 16 N/A
9:52 am 09:52 Mostly Cloudy 60 15.6 45 7.2 58 58 S 18 30 29.83 1010 10 16 N/A
10:52 am 10:52 Partly Cloudy 63 17.2 46 7.8 54 54 S 29 46 29.80 1009 10 16 N/A
11:52 am 11:52 Mostly Cloudy 64 17.8 47 8.3 54 54 S 25 41 29.77 1008 10 16 0.00 0.00
12:52 pm 12:52 Cloudy with Light Rain 65 18.3 49 9.4 56 56 SSW 20 31 29.74 1007 9 14 0.00 0.00
1:14 pm 13:14 Cloudy with Rain 61 16.1 52 11.1 72 72 SW 14 22 29.75 1007 3 5 0.01 0.25
1:30 pm 13:30 Cloudy with Rain 58 14.4 53 11.7 84 84 SW 12 19 29.77 1008 2 2 0.04 1.02
1:52 pm 13:52 Cloudy with Rain 58 14.4 54 12.2 87 87 SSW 9 15 29.75 1008 2 3 0.13 3.30
2:09 pm 14:09 Cloudy with Light Rain 58 14.4 54 12.2 87 87 SSW 10 17 29.76 1008 2 3 0.05 1.27
2:52 pm 14:52 Cloudy with Heavy Rain 57 13.9 54 12.2 90 90 SSW 9 15 29.74 1007 2 3 0.17 4.32
3:01 pm 15:01 Cloudy with Heavy Rain 57 13.9 54 12.2 90 90 SW 8 13 29.75 1007 2 3 0.05 1.27
3:16 pm 15:16 Cloudy with Rain 57 13.9 54 12.2 90 90 SSW 10 17 29.75 1007 2 3 0.16 4.06
3:39 pm 15:39 Cloudy with Light Rain 57 13.9 54 12.2 90 90 SW 9 15 29.75 1007 4 6 0.20 5.08
3:52 pm 15:52 Cloudy with Rain 57 13.9 54 12.2 90 90 WSW 9 15 29.74 1007 4 6 0.22 5.59
4:21 pm 16:21 Cloudy with Rain 57 13.9 53 11.7 87 87 WSW 9 15 29.75 1007 3 4 0.07 1.78
4:42 pm 16:42 Cloudy with Rain 56 13.3 52 11.1 87 87 SW 13 20 29.75 1007 3 4 0.13 3.30
4:45 pm 16:45 Cloudy with Rain 56 13.3 52 11.1 87 87 SW 12 19 29.75 1007 3 5 0.13 3.30
4:52 pm 16:52 Cloudy with Rain 56 13.3 52 11.1 87 87 SW 9 15 29.74 1007 3 5 0.15 3.81
5:24 pm 17:24 Cloudy with Light Rain 56 13.3 53 11.7 90 90 SSW 9 15 29.75 1007 6 10 0.04 1.02
5:52 pm 17:52 Cloudy with Light Rain 55 12.8 52 11.1 90 90 SW 9 15 29.75 1008 5 8 0.05 1.27
6:01 pm 18:01 Cloudy with Light Rain 54 12.2 50 10 87 87 W 18 30 29.78 1009 7 11 0.01 0.25
6:34 pm 18:34 Cloudy 52 11.1 47 8.3 83 83 W 15 24 29.82 1010 10 16 0.01 0.25
6:52 pm 18:52 Cloudy 51 10.6 46 7.8 83 83 W 13 20 29.81 1010 10 16 0.01 0.25
7:52 pm 19:52 Mostly Cloudy 49 9.4 44 6.7 83 83 W 10 17 29.83 1010 10 16 N/A
8:52 pm 20:52 Mostly Clear 47 8.3 43 6.1 86 86 SSW 7 11 29.86 1011 10 16 N/A
9:52 pm 21:52 Mostly Clear 47 8.3 43 6.1 86 86 WSW 7 11 29.89 1012 10 16 N/A
10:52 pm 22:52 Mostly Clear 46 7.8 42 5.6 86 86 SW 6 9 29.91 1013 10 16 N/A
11:52 pm 23:52 Clear 43 6.1 40 4.4 89 89 SSW 7 11 29.92 1013 10 16 N/A

Powered by AerisWeather